Galaxy 1

operational
NORAD ID: 14158 Int'l Des: 1983-065 Owner: HCI Country: US
HEOCIRCULAR

关于 Galaxy 1

正在加载描述...

实时位置

正在加载3D地球...

即将过境

高度历史

Altitude vs Time

uPlot chart will show altitude changes over time

两行轨道根数

1 14158U 83065A 26060.15183634 -.00000260 00000-0 00000-0 0 9995
2 14158 13.6738 342.4689 0004143 310.2198 250.8979 1.00145013 45544
Epoch: Mar 1, 2026 • Age: 83 hours

当前状态

高度 35806.3 km
速度 3.07 km/s
星下点 -9.23°S, 30.72°W
发射日期 Jun 28, 1983
运行时间 42.6 years
类型 other

技术详情

分类 Payload
质量 676.00 kg
干质量 540.00 kg
总质量 1219.00 kg
长度 6.80 m
直径 2.20 m
跨度 6.80 m
形状 Cyl
制造商 HSES
平台类型 HS-376
阶段状态 In Orbit
所有者/国家 HCI/US

大型星座

Loading constellations...